This demonstration page uses our WeatherBlox Daily Observations layout. Learn more.

Left ArrowRight Arrow

31.84235, -102.49876

Hourly Observations for August 25, 2015

Temp ( °F °C ) Dew Point ( °F °C ) Humidity (%) Winds ( mph kmh ) Pressure ( in mb ) Visibility ( mi km ) Precip ( " mm )
12:53 am 00:53 Clear 74 23.3 64 17.8 71 71 E 6 9 29.97 1015 10 16 0.00 0.00
1:53 am 01:53 Clear 74 23.3 63 17.2 69 69 ESE 7 11 29.97 1015 10 16 0.00 0.00
2:53 am 02:53 Clear 73 22.8 63 17.2 71 71 E 5 7 30.01 1016 10 16 0.00 0.00
3:53 am 03:53 Clear 70 21.1 64 17.8 82 82 ENE 6 9 30.00 1016 10 16 0.00 0.00
4:53 am 04:53 Clear 70 21.1 65 18.3 84 84 E 5 7 30.01 1016 10 16 0.00 0.00
5:53 am 05:53 Clear 70 21.1 63 17.2 79 79 ESE 3 6 30.01 1016 10 16 0.00 0.00
6:53 am 06:53 Clear 69 20.6 64 17.8 84 84 NE 7 11 30.02 1017 10 16 0.00 0.00
7:53 am 07:53 Sunny 70 21.1 65 18.3 84 84 Calm 30.04 1017 10 16 0.00 0.00
8:15 am 08:15 Mostly Sunny 72 22.2 65 18.3 79 79 Calm 30.03 1017 10 16 0.00 0.00
8:53 am 08:53 Sunny 75 23.9 64 17.8 69 69 E 7 11 30.06 1018 10 16 0.00 0.00
9:53 am 09:53 Sunny 81 27.2 61 16.1 51 51 S 7 11 30.07 1018 10 16 0.00 0.00
10:53 am 10:53 Sunny 85 29.4 62 16.7 46 46 S 13 20 30.07 1018 10 16 0.00 0.00
11:53 am 11:53 Sunny 88 31.1 60 15.6 39 39 S 10 17 30.08 1019 10 16 0.00 0.00
12:53 pm 12:53 Sunny 90 32.2 59 15 35 35 S 10 17 30.06 1018 10 16 0.00 0.00
1:53 pm 13:53 Sunny 92 33.3 58 14.4 32 32 S 9 15 30.03 1017 10 16 0.00 0.00
2:53 pm 14:53 Partly Cloudy 93 33.9 56 13.3 29 29 undefined N/A 30.01 1016 10 16 0.00 0.00
3:53 pm 15:53 Sunny 94 34.4 55 12.8 27 27 ESE 10 17 29.97 1015 10 16 0.00 0.00
4:53 pm 16:53 Sunny 95 35 54 12.2 25 25 E 5 7 29.95 1014 10 16 0.00 0.00
5:53 pm 17:53 Partly Cloudy 95 35 55 12.8 26 26 SSE 10 17 29.94 1014 10 16 0.00 0.00
6:53 pm 18:53 Sunny 91 32.8 59 15 34 34 S 9 15 29.95 1014 10 16 0.00 0.00
7:53 pm 19:53 Sunny 81 27.2 62 16.7 53 53 SE 23 37 29.98 1015 10 16 0.00 0.00
8:53 pm 20:53 Clear 80 26.7 61 16.1 52 52 SSE 10 17 29.98 1015 10 16 0.00 0.00
9:53 pm 21:53 Clear 79 26.1 62 16.7 56 56 SSE 10 17 30.01 1016 10 16 0.00 0.00
10:53 pm 22:53 Clear 80 26.7 61 16.1 52 52 SE 10 17 30.02 1017 10 16 0.00 0.00
11:53 pm 23:53 Clear 78 25.6 61 16.1 56 56 SE 15 24 30.05 1018 10 16 0.00 0.00

Powered by AerisWeather